Location: 22
(39.7117°N, 89.5929°W)
Time: 17:31:08
(UTC-05:00)

Gurwin Techsat 1B - Pass Details

Date: 01 April 2023
Orbit: 811 x 813 km, 98.9° (Epoch: 06 June)

Event Time Altitude Azimuth Distance (km) Brightness Sun altitude
Rises 05:28:01 0° 354° (N) 3,346 12.0 -14.9°
Reaches altitude 10° 05:31:27 10° 331° (NNW) 2,409 11.0 -14.2°
Maximum altitude 05:34:09 14° 300° (WNW) 2,118 10.4 -13.7°
Enters shadow 05:35:16 13° 286° (WNW) 2,169 10.3 -13.5°
